Theta_e
339 338 338 336 339 341 341 347 349 350 347 346 340 340 340 341 341 343 343 342 342 339 337 335 334 339 342 342 339 337 337 337
339 338 338 336 339 341 342 346 346 351 347 345 340 338 339 338 339 341 342 340 339 339 335 334 334 333 337 338 335 338 338 338
343 341 341 340 339 342 343 346 348 347 348 345 341 338 337 337 337 339 341 340 339 338 336 334 334 330 331 328 335 336 336 336
342 342 341 341 341 342 343 342 346 348 348 346 342 340 340 339 342 342 339 340 338 336 333 333 333 330 329 329 331 335 333 334
340 343 343 344 344 344 343 343 346 349 349 347 343 339 340 341 342 341 339 339 338 337 334 332 330 332 332 325 327 334 332 332
338 343 344 346 346 345 344 341 342 348 349 347 344 341 341 343 342 341 338 336 336 334 331 331 331 332 330 326 327 330 330 330
333 336 338 344 347 347 345 342 341 346 347 347 346 342 343 343 341 341 337 334 332 330 329 329 332 331 330 328 327 329 329 328
334 336 338 340 344 347 346 343 344 345 344 343 342 340 340 342 339 339 336 334 329 327 329 329 329 328 325 328 330 328 327 326
336 338 338 339 342 344 344 344 343 342 339 335 334 335 339 338 339 337 336 333 328 329 328 329 329 327 327 330 328 327 324 327
332 336 340 340 342 343 344 344 343 344 340 338 338 339 338 339 339 335 332 328 327 329 328 328 328 328 329 328 328 323 324 324
333 333 340 341 341 343 343 343 344 344 343 340 338 336 334 332 330 330 327 327 330 331 330 330 328 326 325 328 328 327 321 323
330 331 337 340 341 344 344 343 343 343 342 340 338 335 332 335 337 337 331 332 331 330 330 330 328 326 326 324 326 326 324 319
329 334 337 341 341 343 344 343 342 342 341 342 340 339 334 331 337 336 336 335 333 331 331 330 329 326 326 326 325 326 323 320
338 341 341 341 342 342 344 343 342 342 341 341 341 340 336 332 336 334 334 335 334 333 330 330 330 329 326 325 326 326 325 323
339 340 341 341 341 341 342 344 343 343 341 341 341 341 340 340 338 335 334 333 333 334 333 331 329 330 328 326 325 324 323 320
339 341 341 342 341 341 342 343 344 339 342 341 343 343 340 340 339 337 335 334 334 335 333 332 331 330 329 327 324 323 321 319
338 340 341 340 342 343 342 342 343 342 342 344 343 343 342 341 340 339 336 336 334 333 332 331 331 331 330 329 322 318 318 321
338 340 341 340 341 343 344 344 343 345 345 345 344 344 344 343 342 339 336 334 333 334 332 330 331 331 331 327 322 319 321 318
335 338 338 339 340 342 343 343 344 345 345 344 344 344 344 344 341 339 338 337 335 332 329 327 326 326 327 327 327 324 317 316
332 334 333 335 335 338 341 343 341 342 342 340 338 342 344 343 341 342 341 339 337 335 333 329 328 327 326 322 322 323 321 317
Wind_Speed
12 12 13 15 14 11 12 11 11 10 8 5 4 3 3 3 4 3 2 1 2 1 2 4 4 6 6 7 7 4 6 5
13 12 11 12 13 12 12 12 10 10 6 5 6 4 4 4 4 4 3 2 2 1 2 4 4 4 6 5 4 5 6 6
11 10 10 10 12 12 13 12 9 8 6 5 5 5 5 4 4 4 3 3 1 2 2 3 4 5 5 4 6 6 6 6
10 11 11 12 11 11 12 13 10 10 7 6 5 5 5 4 3 2 3 2 2 2 3 4 4 4 5 4 3 6 6 5
13 13 13 13 11 12 13 13 12 10 9 6 5 5 5 5 3 3 4 3 3 2 3 4 4 5 7 5 4 5 5 5
10 12 12 12 12 14 13 12 12 11 8 6 4 3 4 3 2 2 2 3 3 4 4 4 4 5 5 4 5 6 5 6
6 7 7 12 12 12 13 12 11 10 7 4 3 3 4 3 3 2 4 3 4 4 3 4 4 4 4 5 5 6 5 5
4 5 5 6 10 11 11 9 9 9 6 5 3 3 4 3 3 3 3 3 4 3 3 4 4 4 4 5 5 5 6 6
5 3 4 5 7 9 10 11 11 8 4 3 3 4 3 3 3 4 4 4 3 4 3 4 3 4 4 4 4 6 4 5
8 5 7 7 8 9 10 12 12 9 5 3 2 3 3 3 3 1 1 1 3 4 4 3 3 4 5 5 4 4 3 6
7 8 6 8 9 10 11 12 12 10 10 6 4 4 2 2 3 3 3 5 6 6 5 3 3 3 3 4 4 5 5 5
5 4 5 5 7 8 11 12 12 11 13 9 10 5 5 4 4 4 4 6 6 6 6 5 4 3 3 3 4 4 4 6
3 2 1 2 7 9 10 11 11 12 12 10 8 7 3 2 3 4 5 5 6 6 6 6 6 5 5 5 5 6 5 5
2 4 5 6 6 8 10 12 12 11 10 10 10 8 5 4 3 3 4 4 4 6 7 7 7 5 6 5 5 6 6 6
6 5 6 7 9 11 11 12 10 9 10 9 9 9 7 6 5 4 4 4 5 6 7 8 7 7 6 6 6 6 6 6
9 8 7 7 9 10 10 10 10 10 10 11 10 9 6 7 8 6 6 7 6 5 5 8 10 9 8 7 6 6 6 5
10 9 8 7 8 9 10 10 9 9 10 9 11 10 9 7 7 6 6 6 5 6 7 7 9 10 10 9 7 6 5 7
12 11 10 7 6 7 8 9 10 9 9 8 7 9 9 7 7 9 9 7 7 6 6 7 8 9 9 9 8 6 9 5
13 12 10 8 7 7 7 9 8 8 8 6 7 7 8 8 9 10 11 9 8 8 8 8 8 8 8 9 10 10 9 7
13 13 11 10 10 8 5 3 6 7 7 10 4 6 9 9 9 11 10 9 7 7 7 8 9 9 8 9 10 11 13 11
Wind_Direction
179 180 179 181 178 179 181 176 177 180 171 166 157 158 159 163 172 179 152 139 109 98 111 103 110 119 123 128 125 98 102 104
187 192 187 184 183 184 183 185 183 193 170 172 168 179 177 190 179 196 203 189 151 146 94 109 140 128 126 131 113 112 118 108
194 197 188 194 195 189 191 190 184 196 190 180 181 184 193 191 198 206 221 210 163 182 116 133 153 151 132 126 142 142 135 131
198 209 201 198 196 198 197 197 185 193 198 192 182 193 190 206 215 207 202 177 164 142 162 138 154 142 142 155 151 154 150 152
214 220 220 205 202 194 198 202 193 192 193 201 202 196 196 205 209 201 196 179 160 182 198 168 146 146 145 140 146 171 162 164
212 220 228 213 206 201 196 196 197 188 188 185 221 209 223 215 189 197 202 173 186 204 193 169 147 157 157 159 173 185 181 177
198 207 231 228 215 204 198 193 189 188 169 164 186 234 247 236 192 185 157 187 195 195 186 150 169 164 163 174 177 194 194 192
157 213 215 228 217 205 199 183 163 166 162 166 145 159 230 214 199 190 187 187 171 187 171 168 192 180 187 192 184 188 218 207
205 209 192 168 191 193 185 173 156 159 166 145 171 180 171 203 217 199 208 211 174 203 189 185 173 196 212 200 170 180 172 198
228 212 169 180 185 187 174 177 170 170 176 143 130 144 174 206 219 238 282 195 208 211 219 202 178 188 176 186 191 188 182 188
242 200 181 180 188 180 172 180 173 167 172 142 104 92 79 195 216 213 202 192 203 204 203 221 205 243 204 198 207 228 227 189
289 243 212 188 187 172 171 179 172 168 167 169 171 186 194 204 227 221 205 209 208 207 210 199 204 224 223 215 220 241 240 237
1 350 333 210 177 181 179 174 174 171 179 186 191 202 192 149 220 232 221 215 227 231 226 215 207 212 204 219 207 214 217 259
209 167 169 180 179 181 185 182 184 184 186 193 198 207 183 200 200 226 224 235 230 233 232 228 233 229 218 213 210 213 225 235
222 217 201 184 182 186 194 195 191 187 196 203 212 216 212 215 215 212 224 231 233 240 232 230 227 229 232 233 220 224 219 223
221 216 213 199 195 194 197 191 187 188 195 206 207 209 217 217 214 208 203 201 214 222 235 232 231 232 230 225 230 233 221 224
236 229 228 220 204 195 200 199 203 193 201 198 200 200 215 230 234 239 238 246 229 211 213 227 230 233 234 226 229 218 221 227
237 240 239 223 223 214 206 202 207 209 211 204 203 208 216 222 233 238 239 233 219 226 237 231 229 232 230 222 228 222 228 218
238 241 241 238 219 215 203 206 217 216 211 212 218 230 230 229 235 239 239 237 227 220 215 226 231 236 231 229 230 229 220 224
242 241 232 220 218 213 194 270 330 327 346 1 280 282 260 245 245 248 244 241 241 238 235 232 237 230 230 220 232 231 227 220